Regional Weather Roundup
Issued by NWS

Home | Current Version | Previous Version | Text Only | Print | Product List | Glossary Off
Versions: 1 2 3 4 5 6 7 8 9 10 11 12 13 14 15 16 17 18 19 20 21 22 23 24 25 26 27 28 29 30 31 32 33 34 35 36 37 38 39 40 41 42 43 44 45 46 47 48 49 50

765
ASUS43 KIND 180609
RWRIN

WEATHER ROUNDUP FOR INDIANA
NATIONAL WEATHER SERVICE INDIANAPOLIS IN
200 AM EDT WED OCT 18 2017

NOTE: "FAIR" INDICATES FEW OR NO CLOUDS BELOW 12,000 FEET WITH NO
SIGNIFICANT WEATHER AND/OR OBSTRUCTIONS TO VISIBILITY.

* - STATION DOES NOT REPORT WEATHER SUCH AS PRECIPITATION OR FOG.

+ - STATION NOT QUALITY CONTROLLED BY THE NATIONAL WEATHER SERVICE.
    USE DATA WITH CAUTION...ESPECIALLY DEWPOINT AND RELATIVE
    HUMIDITY OBSERVATIONS.

INZ001>003-010>013-019-020-180700-
NORTHWEST INDIANA

CITY           SKY/WX    TMP DP  RH WIND       PRES   REMARKS
GARY /AIRPORT/ CLEAR     55  38  53 S3        30.18S
KNOX *+        CLEAR     48  41  76 S5        30.20S
LA PORTE +     CLEAR     49  40  71 CALM      30.20S
6HR MIN TEMP:  49; 6HR MAX TEMP:  59;

MICHIGAN CITY+ CLEAR     50  39  66 S5        30.20R
MONTICELLO +   CLEAR     47  39  73 S3        30.22S
6HR MIN TEMP:  47; 6HR MAX TEMP:  58;

RENSSELAER +   CLEAR     45  36  70 S3        30.21S
VALPARAISO     CLEAR     51  41  68 S6        30.20R
6HR MIN TEMP:  51; 6HR MAX TEMP:  61;


$$

LMZ046-743>745-180700-
SOUTHERN LAKE MICHIGAN

STATION/POSITION TIME  TEMP    WIND        PRES    WAVE
                       AIR SEA DIR/SP/G            HT
                 (UTC) (F)     (DEG/KT/KT) (MB)    (FT)
BURNS HARBOR     0540   55     190/ 12/ 14 1022.4R
MICHIGAN CITY    0540   55     170/ 13/ 15   N/A
5NW MICH CITY    0600   56 57  200/ 12/ 16   N/A     2

$$

INZ004-005-014>016-021>024-180700-
NORTH CENTRAL INDIANA

CITY           SKY/WX    TMP DP  RH WIND       PRES   REMARKS
GOSHEN         CLEAR     50  39  66 S7        30.21S
6HR MIN TEMP:  49; 6HR MAX TEMP:  57;

LOGANSPORT +   CLEAR     43  37  81 S3        30.24S
PERU/GRISSOM   CLEAR     46  39  78 S6        30.23S
6HR MIN TEMP:  45; 6HR MAX TEMP:  53;

SOUTH BEND     CLEAR     50  40  68 SW6       30.21S
6HR MIN TEMP:  50; 6HR MAX TEMP:  58;

WARSAW +       PTCLDY    48  39  71 CALM      30.22S

$$

INZ006>009-017-018-025>027-180700-
NORTHEAST INDIANA

CITY           SKY/WX    TMP DP  RH WIND       PRES   REMARKS
AUBURN +       CLEAR     45  41  87 CALM      30.24S
FORT WAYNE     CLEAR     46  38  73 S3        30.25R
6HR MIN TEMP:  43; 6HR MAX TEMP:  53;

HUNTINGTON +   CLEAR     47  41  77 CALM      30.24S
6HR MIN TEMP:  43; 6HR MAX TEMP:  56;

KENDALLVILLE + CLEAR     49  40  70 SW6       30.23S

$$

INZ028-029-035-036-043>045-051>053-180700-
WEST CENTRAL INDIANA

CITY           SKY/WX    TMP DP  RH WIND       PRES   REMARKS
CRAWFORDSVL +  CLEAR     45  39  81 S5        30.23F
GREENCASTLE +  CLEAR     43  37  81 CALM      30.25S
LAFAYETTE      CLEAR     48  41  76 SW5       30.22S
6HR MIN TEMP:  45; 6HR MAX TEMP:  58;

TERRE HAUTE    CLEAR     41  38  89 CALM      30.25S
6HR MIN TEMP:  40; 6HR MAX TEMP:  56;


$$

INZ030>032-037>040-046>048-054>057-064-065-180700-
CENTRAL INDIANA

CITY           SKY/WX    TMP DP  RH WIND       PRES   REMARKS
CP ATTERBURY + CLEAR     37  36  93 CALM      30.26F
FISHERS *+     CLEAR     43  43 100 CALM      30.25S
FRANKFORT +    MOCLDY    48  41  79 S3        30.24S
6HR MIN TEMP:  47; 6HR MAX TEMP:  55;

GREENWOOD *+   CLEAR     50  43  77 SW6       30.25F
INDIANAPOLIS   CLEAR     46  39  76 SW5       30.25S
6HR MIN TEMP:  46; 6HR MAX TEMP:  57;

-EAGLE CREEK   CLEAR     46  40  79 CALM      30.24S
6HR MIN TEMP:  46; 6HR MAX TEMP:  57;

KOKOMO +       CLEAR     44  40  85 S7        30.25R
6HR MIN TEMP:  44; 6HR MAX TEMP:  54;

MT COMFORT *+  CLEAR     45  43  93 S5        30.25S
SHELBYVILLE    CLEAR     49  40  71 S5        30.25S
6HR MIN TEMP:  44; 6HR MAX TEMP:  58;

ZIONSVILLE +   PTCLDY    46  39  75 SW3       30.25S
6HR MIN TEMP:  44; 6HR MAX TEMP:  53;


$$

INZ033-034-041-042-049-050-058-059-180700-
EAST CENTRAL INDIANA

CITY           SKY/WX    TMP DP  RH WIND       PRES   REMARKS
MUNCIE         CLEAR     45  39  79 CALM      30.25S
6HR MIN TEMP:  45; 6HR MAX TEMP:  55;

RICHMOND +     CLEAR     43  37  81 SW3       30.27S

$$

INZ060-061-067>069-081>083-085>088-180700-
SOUTHWEST INDIANA

CITY           SKY/WX    TMP DP  RH WIND       PRES   REMARKS
EVANSVILLE     CLEAR     45  43  93 CALM      30.26S
6HR MIN TEMP:  45; 6HR MAX TEMP:  57;

HUNTINGBURG +  CLEAR     45  44  97 SE5       30.26S
6HR MIN TEMP:  44; 6HR MAX TEMP:  56;

WASHINGTON +   CLEAR     42  40  94 CALM      30.25S
6HR MIN TEMP:  41; 6HR MAX TEMP:  52;


$$

INZ062-063-066-070>080-084-089>092-180700-
SOUTH CENTRAL AND SOUTHEAST INDIANA

CITY           SKY/WX    TMP DP  RH WIND       PRES   REMARKS
BEDFORD +      CLEAR     43  41  93 CALM      30.25F
BLOOMINGTON    CLEAR     41  38  89 CALM      30.26S
6HR MIN TEMP:  41; 6HR MAX TEMP:  53;

MADISON *+     CLEAR     43  41  93 CALM      30.29S
NORTH VERNON + CLEAR     39  39 100 CALM      30.28S
SEYMOUR +      CLEAR     41  39  93 CALM      30.27S

$$





USA.gov is the U.S. government's official web portal to all federal, state and local government web resources and services.